Погода в Санском

Россия / Рязанская область     54°22′40″N   40°45′51″E
темп.,
°C
ветер,
м/с
пор.,
м/с
влажн.,
%
обл.,
%
осадки,
мм/ч
давл.,
гПа
погр.,
м
16 июня, ср
ср1600:00+17з118673 0.3 100911
03:00+16сз229073 0.4 100913
06:00+18сз259247 0.0 1009160
09:00+20сз358649 0.0 1009307
12:00+25ссз456373 0.2 10101177
15:00+23ссз577610 1.6 1011925
18:00+22ссв37750 1.3 1012380
21:00+17с498333 1.3 1015185
17 июня, чт
чт1700:00+14с35770 0.0 101762
03:00+11с48754 0.0 1019126
06:00+13с26795 0.0 1021172
09:00+19ссв35595 0.0 1022519
12:00+22ссв35475 0.0 10221682
15:00+23с45485 0.0 10221941
18:00+21ссв47620 0.0 1023258
21:00+15с36731 0.0 102576
18 июня, пт
пт1800:00+13всв22812 0.0 102514
03:00+12ссв2283100 0.0 102710
06:00+15ссв12770 0.0 102869
09:00+20ссв22640 0.0 1028433
12:00+23в12520 0.0 10281301
15:00+24ююв12520 0.0 10271028
18:00+23зюз23675 0.0 1027281
21:00+18зюз227998 0.0 102720
19 июня, сб
сб1900:00+16з228221 0.0 102812
03:00+15зюз22885 0.0 102916
06:00+17зюз23845 0.0 103091
09:00+21зюз3370100 0.0 1029444
12:00+24юз336297 0.0 1029911
15:00+25зюз346145 0.0 10281116
18:00+24зюз347221 0.0 1027606
21:00+19зюз338889 0.0 102729
20 июня, вс
вс2000:00+17зюз228973 0.0 102722
03:00+15зюз229098 0.0 102717
06:00+18з228549 0.0 102890
09:00+22зюз22725 0.0 1027453
12:00+25юз22610 0.0 1026991
15:00+26юз22570 0.0 10251065
18:00+25юз22674 0.0 1024820
21:00+20з11800 0.0 102411